• In Belgium
  • List of Countries
  • For 7 days
  • Water Temperature
  • Satellite Maps
  • Weather Map
  • Weather Widgets
  • user-avatar
    Login

    Hourly Weather Yerevan

    Today, 24 November, Friday

    Time Temperature Precipitation Wind Pressure Humidity
    00:00 +2°C° 0.1 mm 1 mps 687 mmHg 65%
    01:00 +2°C° 0.1 mm 1 mps 687 mmHg 66%
    02:00 +1°C° 0.1 mm 1 mps 687 mmHg 67%
    03:00 +1°C° 0.1 mm 1 mps 687 mmHg 67%
    04:00 +1°C° 0.1 mm 1 mps 688 mmHg 67%
    05:00 +1°C° 0.1 mm 1 mps 688 mmHg 67%
    06:00 +1°C° 0.1 mm 1 mps 688 mmHg 67%
    07:00 +1°C° 0.1 mm 1 mps 688 mmHg 65%
    08:00 +2°C° 0.1 mm 1 mps 688 mmHg 63%
    09:00 +2°C° 0.1 mm 1 mps 689 mmHg 61%
    10:00 +3°C° 0 mm 1 mps 689 mmHg 57%
    11:00 +3°C° 0 mm 1 mps 689 mmHg 54%
    12:00 +4°C° 0 mm 1 mps 688 mmHg 51%
    13:00 +4°C° 0 mm 1 mps 688 mmHg 49%
    14:00 +3°C° 0 mm 2 mps 689 mmHg 48%
    15:00 +3°C° 0 mm 2 mps 689 mmHg 47%
    16:00 +2°C° 0 mm 2 mps 689 mmHg 49%
    17:00 +1°C° 0 mm 2 mps 690 mmHg 52%
    18:00 -1°C° 0 mm 2 mps 690 mmHg 54%
    19:00 -1°C° 0 mm 2 mps 690 mmHg 55%
    20:00 -2°C° 0 mm 2 mps 691 mmHg 55%
    21:00 -2°C° 0 mm 2 mps 691 mmHg 56%
    22:00 -2°C° 0 mm 2 mps 691 mmHg 56%
    23:00 -3°C° 0 mm 2 mps 691 mmHg 56%

    Tomorrow, 25 November, Saturday

    Time Temperature Precipitation Wind Pressure Humidity
    00:00 -3°C° 0 mm 2 mps 691 mmHg 56%
    01:00 -3°C° 0 mm 2 mps 692 mmHg 56%
    02:00 -3°C° 0 mm 2 mps 692 mmHg 56%
    03:00 -3°C° 0 mm 2 mps 692 mmHg 57%
    04:00 -3°C° 0 mm 2 mps 692 mmHg 58%
    05:00 -3°C° 0 mm 2 mps 693 mmHg 59%
    06:00 -3°C° 0 mm 2 mps 693 mmHg 60%
    07:00 -2°C° 0 mm 2 mps 693 mmHg 59%
    08:00 -1°C° 0 mm 2 mps 694 mmHg 57%
    09:00 +1°C° 0 mm 2 mps 695 mmHg 55%
    10:00 +1°C° 0 mm 2 mps 694 mmHg 52%
    11:00 +2°C° 0 mm 2 mps 694 mmHg 49%
    12:00 +3°C° 0 mm 2 mps 694 mmHg 46%
    13:00 +3°C° 0 mm 2 mps 694 mmHg 45%
    14:00 +4°C° 0 mm 2 mps 694 mmHg 44%
    15:00 +4°C° 0 mm 2 mps 694 mmHg 43%
    16:00 +3°C° 0 mm 2 mps 694 mmHg 46%
    17:00 +2°C° 0 mm 2 mps 695 mmHg 48%
    18:00 -1°C° 0 mm 2 mps 695 mmHg 51%
    19:00 -1°C° 0 mm 2 mps 696 mmHg 51%
    20:00 -1°C° 0 mm 2 mps 696 mmHg 52%
    21:00 +1°C° 0 mm 1 mps 696 mmHg 52%
    22:00 0°C° 0 mm 1 mps 696 mmHg 52%
    23:00 0°C° 0 mm 1 mps 696 mmHg 52%

    Day after tomorrow, 26 November, Sunday

    Time Temperature Precipitation Wind Pressure Humidity
    00:00 0°C° 0 mm 1 mps 696 mmHg 52%
    01:00 0°C° 0 mm 1 mps 696 mmHg 53%
    02:00 0°C° 0 mm 1 mps 696 mmHg 53%
    03:00 0°C° 0 mm 1 mps 696 mmHg 53%
    04:00 -1°C° 0 mm 1 mps 696 mmHg 54%
    05:00 -1°C° 0 mm 1 mps 696 mmHg 54%
    06:00 -1°C° 0 mm 1 mps 696 mmHg 54%
    07:00 +1°C° 0 mm 1 mps 696 mmHg 51%
    08:00 +2°C° 0 mm 1 mps 696 mmHg 48%
    09:00 +3°C° 0 mm 1 mps 696 mmHg 45%
    10:00 +3°C° 0 mm 2 mps 696 mmHg 43%
    11:00 +5°C° 0 mm 2 mps 695 mmHg 40%
    12:00 +6°C° 0 mm 2 mps 694 mmHg 37%
    13:00 +6°C° 0 mm 2 mps 694 mmHg 37%
    14:00 +6°C° 0 mm 2 mps 693 mmHg 37%
    15:00 +6°C° 0 mm 2 mps 693 mmHg 37%
    16:00 +5°C° 0 mm 2 mps 693 mmHg 39%
    17:00 +4°C° 0 mm 2 mps 693 mmHg 41%
    18:00 +2°C° 0 mm 2 mps 693 mmHg 43%
    19:00 +3°C° 0 mm 1 mps 693 mmHg 44%
    20:00 +3°C° 0 mm 1 mps 694 mmHg 44%
    21:00 +3°C° 0 mm 1 mps 694 mmHg 44%
    22:00 +2°C° 0 mm 1 mps 694 mmHg 45%
    23:00 +2°C° 0 mm 1 mps 693 mmHg 45%

    27 November, Monday

    Time Temperature Precipitation Wind Pressure Humidity
    00:00 +2°C° 0 mm 1 mps 693 mmHg 46%
    01:00 +2°C° 0 mm 1 mps 693 mmHg 47%
    02:00 +2°C° 0 mm 1 mps 693 mmHg 48%
    03:00 +2°C° 0 mm 1 mps 693 mmHg 49%
    04:00 +2°C° 0 mm 1 mps 693 mmHg 50%
    05:00 +2°C° 0 mm 1 mps 692 mmHg 51%
    06:00 +1°C° 0 mm 1 mps 692 mmHg 52%
    07:00 +3°C° 0 mm 1 mps 692 mmHg 49%
    08:00 +4°C° 0 mm 1 mps 693 mmHg 47%
    09:00 +5°C° 0 mm 1 mps 693 mmHg 45%
    10:00 +7°C° 0 mm 1 mps 692 mmHg 44%
    11:00 +7°C° 0 mm 2 mps 691 mmHg 43%
    12:00 +8°C° 0 mm 2 mps 691 mmHg 42%
    13:00 +8°C° 0 mm 2 mps 691 mmHg 42%
    14:00 +8°C° 0 mm 2 mps 690 mmHg 42%
    15:00 +8°C° 0 mm 2 mps 690 mmHg 43%
    16:00 +7°C° 0 mm 2 mps 690 mmHg 45%
    17:00 +5°C° 0 mm 2 mps 690 mmHg 48%
    18:00 +4°C° 0 mm 2 mps 690 mmHg 50%
    19:00 +4°C° 0 mm 2 mps 690 mmHg 51%
    20:00 +4°C° 0 mm 1 mps 691 mmHg 52%
    21:00 +4°C° 0 mm 1 mps 691 mmHg 53%
    22:00 +4°C° 0 mm 1 mps 691 mmHg 54%
    23:00 +4°C° 0 mm 1 mps 691 mmHg 55%

    28 November, Tuesday

    Time Temperature Precipitation Wind Pressure Humidity
    00:00 +4°C° 0 mm 1 mps 691 mmHg 56%
    01:00 +4°C° 0 mm 1 mps 690 mmHg 57%
    02:00 +4°C° 0 mm 1 mps 690 mmHg 58%
    03:00 +4°C° 0 mm 1 mps 690 mmHg 59%
    04:00 +4°C° 0 mm 1 mps 690 mmHg 61%
    05:00 +3°C° 0 mm 2 mps 690 mmHg 62%
    06:00 +3°C° 0 mm 2 mps 690 mmHg 64%
    07:00 +4°C° 0 mm 2 mps 690 mmHg 61%
    08:00 +5°C° 0 mm 2 mps 690 mmHg 59%
    09:00 +6°C° 0 mm 2 mps 691 mmHg 56%
    10:00 +7°C° 0 mm 3 mps 690 mmHg 55%
    11:00 +8°C° 0 mm 3 mps 690 mmHg 53%
    12:00 +9°C° 0 mm 3 mps 689 mmHg 52%
    13:00 +9°C° 0 mm 3 mps 689 mmHg 52%
    14:00 +9°C° 0 mm 3 mps 688 mmHg 52%
    15:00 +8°C° 0 mm 4 mps 688 mmHg 52%
    16:00 +8°C° 0.1 mm 3 mps 688 mmHg 56%
    17:00 +7°C° 0.1 mm 3 mps 689 mmHg 59%
    18:00 +5°C° 0.1 mm 3 mps 689 mmHg 63%
    19:00 +5°C° 0.2 mm 3 mps 689 mmHg 64%
    20:00 +7°C° 0.2 mm 2 mps 689 mmHg 66%
    21:00 +7°C° 0.2 mm 2 mps 689 mmHg 67%
    22:00 +6°C° 0.1 mm 2 mps 689 mmHg 68%
    23:00 +6°C° 0.1 mm 2 mps 689 mmHg 70%

    29 November, Wednesday

    Time Temperature Precipitation Wind Pressure Humidity
    00:00 +6°C° 0.1 mm 2 mps 689 mmHg 71%
    01:00 +6°C° 0.1 mm 2 mps 689 mmHg 72%
    02:00 +6°C° 0.1 mm 2 mps 689 mmHg 73%
    03:00 +6°C° 0.1 mm 2 mps 689 mmHg 73%
    04:00 +6°C° 0.2 mm 2 mps 688 mmHg 74%
    05:00 +6°C° 0.2 mm 2 mps 688 mmHg 74%
    06:00 +6°C° 0.2 mm 2 mps 688 mmHg 75%
    07:00 +7°C° 0.3 mm 2 mps 688 mmHg 73%
    08:00 +7°C° 0.3 mm 3 mps 688 mmHg 72%
    09:00 +8°C° 0.3 mm 3 mps 688 mmHg 71%
    10:00 +8°C° 0.3 mm 3 mps 688 mmHg 69%
    11:00 +9°C° 0.3 mm 3 mps 687 mmHg 68%
    12:00 +10°C° 0.3 mm 3 mps 687 mmHg 66%
    13:00 +10°C° 0.4 mm 3 mps 687 mmHg 66%
    14:00 +10°C° 0.4 mm 3 mps 687 mmHg 66%
    15:00 +10°C° 0.4 mm 3 mps 686 mmHg 66%
    16:00 +9°C° 0.3 mm 3 mps 687 mmHg 67%
    17:00 +9°C° 0.3 mm 2 mps 687 mmHg 69%
    18:00 +8°C° 0.3 mm 2 mps 687 mmHg 71%
    19:00 +8°C° 0.2 mm 2 mps 687 mmHg 71%
    20:00 +8°C° 0.2 mm 2 mps 687 mmHg 71%
    21:00 +8°C° 0.2 mm 2 mps 687 mmHg 71%
    22:00 +7°C° 0.2 mm 2 mps 687 mmHg 72%
    23:00 +7°C° 0.2 mm 2 mps 686 mmHg 72%
    Show more